Regional Weather Roundup
Issued by NWS

Home | Current Version | Previous Version | Graphics & Text | Print | Product List | Glossary On
Versions: 1 2 3 4 5 6 7 8 9 10 11 12 13 14 15 16 17 18 19 20 21 22 23 24 25 26 27 28 29 30 31 32 33 34 35 36 37 38 39 40 41 42 43 44 45 46 47 48 49 50
000
ASUS45 KSLC 090710
RWRUT

UTAH REGIONAL WEATHER ROUNDUP
NATIONAL WEATHER SERVICE SALT LAKE CITY UT
1200 AM MST TUE FEB 09 2016

UTZ001>011-023>025-090800-

NORTHERN UTAH

CITY           SKY/WX    TMP DP  RH WIND       PRES   REMARKS
BRIGHAM CITY   CLOUDY    13  10  87 CALM      30.65S VSB<1/4
HILL AFB       PTCLDY    28  17  64 E12       30.62S WCI  18
LOGAN          FOG       10   8  92 CALM      30.65S VSB 1/4
OGDEN          PTCLDY    25  20  81 S7        30.62S WCI  17
PROVO AIRPORT    N/A     18  16  93 CALM      30.64R VSB 3/4
SALT LAKE CITY PTCLDY    28  25  88 CALM      30.63S FOG
VERNAL         CLOUDY    12   7  80 W5        30.56R WCI   4
WENDOVER       PTCLDY    27  23  86 CALM      30.62F
HEBER CITY     PTCLDY     9   5  85 CALM      30.60R
WEST JORDAN    CLEAR     27  25  93 CALM      30.63S

$$

UTZ012>022-026-027-090800-

SOUTHERN/CENTRAL UTAH

CITY           SKY/WX    TMP DP  RH WIND       PRES   REMARKS
BLANDING       CLEAR     34  19  54 CALM      30.53R
BRYCE CANYON   PTCLDY    17  12  80 W9        30.56R WCI   6
CEDAR CITY     PTCLDY    20  17  88 SE3       30.55F
DELTA            N/A     13  12  95 CALM      30.63S VSB<1/4
HANKSVILLE     MOCLDY    21  21 100 CALM      30.55S
MILFORD        PTCLDY    13   8  81 NE9       30.60R HAZE    WCI   1
MOAB/CYNLANDS  PTCLDY    18  16  92 CALM      30.52R
PRICE          PTCLDY    23  15  71 N3        30.50R
ST GEORGE      MOSUNNY   43  25  49 N6        30.48R
KANAB          CLEAR     30  28  93 CALM      30.50S

$$

REGIONAL REPORTS     COLORADO/ARIZONA

CITY           SKY/WX    TMP DP  RH WIND       PRES   REMARKS
CRAIG, CO      CLOUDY    -1  -6  79 CALM      30.54S
GRAND JUNCTION CLOUDY    19  18  95 E6        30.53S WCI  11
RIFLE          CLOUDY    20  13  74 CALM      30.54R
MONTROSE       CLOUDY    19  14  81 SE9       30.54S WCI   8
CORTEZ         CLOUDY    28  19  69 E7        30.44F WCI  21
PAGE, AZ       CLEAR     36  24  62 CALM      30.47S
GRAND CANYON   CLEAR     25  21  85 SW5       30.48F WCI  19
KINGMAN        CLEAR     52  23  32 NE6       30.36R
FLAGSTAFF      CLEAR     39  18  42 NE14      30.46S WCI  31

$$

REGIONAL REPORTS    NEVADA/IDAHO/WYOMING

CITY           SKY/WX    TMP DP  RH WIND       PRES   REMARKS
LAS VEGAS, NV  CLEAR     59  27  29 NE6       30.33S
ELY            PTCLDY    12   8  84 S14       30.61S WCI  -3
ELKO           MOCLDY    14  11  87 CALM      30.62R
POCATELLO, ID  FOG       26  25  96 CALM      30.64F VSB 1/4
BURLEY         FOG       29  28  96 NE7       30.61S VSB 1/2 WCI  22
EVANSTON, WY   CLOUDY    28  17  63 SW8       30.57F WCI  20
ROCK SPRINGS   CLOUDY    28  22  78 W20       30.49S WCI  15

$$



USA.gov is the U.S. government's official web portal to all federal, state and local government web resources and services.